QPF
0.01 0.01 0.01 0.01 0.02 0.02 0.03 0.02 0.01 0.01 0.01 0.00 0.00 0.01 0.01 0.01 0.02 0.05 0.05 0.04 0.02 0.02 0.03 0.02 0.02 0.02 0.03 0.04 0.05 0.05 0.05 0.04 0.05 0.06 0.06 0.06 0.06 0.06 0.06 0.06 0.05 0.06 0.06 0.05 0.05 0.05 0.05 0.05 0.06
0.01 0.01 0.01 0.02 0.03 0.03 0.02 0.03 0.03 0.01 0.01 0.00 0.00 0.01 0.02 0.01 0.01 0.03 0.02 0.02 0.03 0.02 0.03 0.03 0.02 0.02 0.02 0.02 0.04 0.05 0.05 0.04 0.05 0.05 0.04 0.04 0.05 0.06 0.06 0.05 0.05 0.06 0.06 0.06 0.06 0.06 0.06 0.06 0.06
0.01 0.02 0.02 0.02 0.04 0.03 0.02 0.03 0.02 0.01 0.01 0.00 0.01 0.01 0.02 0.03 0.02 0.02 0.02 0.02 0.03 0.02 0.02 0.04 0.03 0.02 0.02 0.02 0.03 0.04 0.05 0.05 0.04 0.04 0.03 0.03 0.04 0.06 0.06 0.06 0.05 0.06 0.07 0.06 0.06 0.06 0.06 0.07 0.06
0.01 0.02 0.02 0.03 0.03 0.01 0.02 0.02 0.02 0.01 0.01 0.01 0.01 0.02 0.02 0.03 0.03 0.01 0.01 0.02 0.02 0.02 0.01 0.02 0.03 0.03 0.02 0.01 0.02 0.03 0.04 0.04 0.04 0.04 0.03 0.03 0.04 0.06 0.06 0.08 0.08 0.07 0.07 0.06 0.06 0.07 0.09 0.10 0.08
0.02 0.02 0.03 0.03 0.02 0.01 0.01 0.01 0.01 0.01 0.01 0.01 0.01 0.02 0.02 0.03 0.02 0.01 0.01 0.02 0.02 0.02 0.02 0.02 0.03 0.04 0.04 0.02 0.02 0.03 0.03 0.04 0.04 0.05 0.05 0.05 0.05 0.06 0.08 0.09 0.09 0.07 0.07 0.08 0.09 0.11 0.11 0.10 0.08
0.03 0.04 0.04 0.02 0.02 0.01 0.00 0.00 0.00 0.01 0.00 0.00 0.01 0.01 0.02 0.02 0.02 0.01 0.01 0.01 0.01 0.01 0.02 0.03 0.03 0.04 0.04 0.04 0.03 0.03 0.03 0.03 0.05 0.06 0.08 0.09 0.08 0.07 0.09 0.11 0.13 0.11 0.11 0.12 0.16 0.15 0.10 0.07 0.07
0.03 0.04 0.03 0.03 0.02 0.01 0.00 0.00 0.00 0.01 0.01 0.00 0.00 0.01 0.01 0.01 0.01 0.01 0.01 0.01 0.01 0.01 0.02 0.03 0.03 0.03 0.02 0.03 0.03 0.04 0.04 0.04 0.05 0.08 0.11 0.13 0.16 0.18 0.17 0.16 0.17 0.22 0.26 0.23 0.22 0.16 0.12 0.10 0.08
0.01 0.02 0.02 0.02 0.02 0.02 0.01 0.00 0.00 0.01 0.01 0.00 0.01 0.02 0.01 0.01 0.01 0.01 0.01 0.01 0.01 0.01 0.02 0.03 0.03 0.03 0.02 0.04 0.03 0.03 0.04 0.04 0.04 0.06 0.11 0.14 0.15 0.15 0.14 0.13 0.19 0.32 0.38 0.33 0.23 0.16 0.13 0.12 0.09
0.01 0.03 0.02 0.02 0.02 0.01 0.01 0.00 0.00 0.00 0.00 0.00 0.00 0.01 0.02 0.01 0.01 0.01 0.01 0.02 0.02 0.01 0.02 0.03 0.03 0.03 0.02 0.02 0.02 0.03 0.03 0.03 0.03 0.04 0.04 0.06 0.08 0.09 0.10 0.13 0.19 0.26 0.29 0.29 0.27 0.21 0.18 0.14 0.11
0.01 0.02 0.01 0.01 0.01 0.01 0.01 0.00 0.00 0.00 0.01 0.01 0.01 0.01 0.01 0.00 0.01 0.01 0.01 0.01 0.01 0.02 0.01 0.03 0.02 0.03 0.03 0.02 0.02 0.03 0.04 0.04 0.03 0.03 0.03 0.05 0.07 0.08 0.10 0.13 0.13 0.13 0.17 0.23 0.28 0.23 0.21 0.18 0.17
0.00 0.00 0.01 0.00 0.00 0.01 0.02 0.01 0.00 0.01 0.01 0.00 0.01 0.01 0.01 0.00 0.00 0.01 0.01 0.01 0.02 0.02 0.01 0.01 0.01 0.02 0.03 0.03 0.03 0.03 0.03 0.04 0.03 0.03 0.03 0.04 0.05 0.06 0.07 0.07 0.08 0.10 0.13 0.17 0.24 0.26 0.24 0.21 0.17
0.00 0.00 0.01 0.02 0.01 0.01 0.01 0.01 0.01 0.00 0.00 0.00 0.00 0.00 0.00 0.00 0.00 0.01 0.01 0.01 0.01 0.01 0.01 0.01 0.01 0.01 0.02 0.02 0.02 0.02 0.02 0.02 0.02 0.02 0.03 0.04 0.06 0.06 0.06 0.06 0.07 0.08 0.10 0.13 0.16 0.22 0.27 0.22 0.14
0.01 0.01 0.01 0.03 0.03 0.02 0.01 0.01 0.01 0.00 0.00 0.00 0.00 0.00 0.00 0.01 0.01 0.02 0.02 0.02 0.03 0.03 0.01 0.00 0.00 0.01 0.02 0.02 0.03 0.02 0.02 0.01 0.01 0.02 0.03 0.05 0.05 0.05 0.05 0.06 0.09 0.09 0.09 0.10 0.13 0.17 0.21 0.23 0.16
0.00 0.01 0.00 0.03 0.05 0.04 0.02 0.02 0.01 0.00 0.00 0.00 0.00 0.00 0.00 0.01 0.02 0.02 0.02 0.03 0.09 0.09 0.03 0.01 0.01 0.01 0.02 0.03 0.03 0.03 0.02 0.01 0.01 0.02 0.03 0.05 0.04 0.04 0.05 0.05 0.06 0.07 0.09 0.08 0.09 0.10 0.14 0.17 0.16
0.00 0.01 0.01 0.03 0.06 0.06 0.04 0.03 0.01 0.00 0.00 0.00 0.00 0.00 0.00 0.01 0.01 0.01 0.01 0.02 0.08 0.14 0.09 0.04 0.02 0.02 0.03 0.04 0.03 0.03 0.03 0.02 0.02 0.02 0.04 0.05 0.04 0.04 0.03 0.03 0.04 0.06 0.05 0.05 0.05 0.06 0.09 0.12 0.15
0.00 0.01 0.02 0.03 0.04 0.03 0.04 0.06 0.01 0.01 0.00 0.00 0.00 0.00 0.00 0.00 0.00 0.01 0.01 0.02 0.05 0.09 0.10 0.09 0.09 0.08 0.08 0.08 0.07 0.06 0.05 0.05 0.05 0.03 0.03 0.03 0.04 0.05 0.03 0.02 0.02 0.04 0.05 0.07 0.08 0.07 0.10 0.12 0.12
0.00 0.01 0.01 0.01 0.02 0.02 0.02 0.04 0.01 0.01 0.01 0.00 0.00 0.00 0.00 0.00 0.00 0.00 0.00 0.01 0.02 0.03 0.04 0.07 0.11 0.15 0.16 0.13 0.10 0.08 0.07 0.07 0.08 0.08 0.07 0.05 0.04 0.04 0.03 0.03 0.04 0.04 0.05 0.07 0.06 0.08 0.09 0.11 0.11
0.00 0.00 0.00 0.00 0.00 0.01 0.01 0.02 0.01 0.01 0.01 0.01 0.00 0.00 0.01 0.01 0.01 0.01 0.01 0.00 0.01 0.01 0.01 0.01 0.02 0.03 0.05 0.04 0.04 0.04 0.04 0.04 0.05 0.05 0.06 0.06 0.05 0.04 0.03 0.03 0.03 0.03 0.05 0.05 0.03 0.04 0.05 0.06 0.08
0.00 0.00 0.00 0.00 0.00 0.00 0.00 0.01 0.01 0.01 0.01 0.01 0.01 0.00 0.01 0.01 0.01 0.01 0.01 0.00 0.01 0.01 0.01 0.01 0.01 0.02 0.02 0.02 0.02 0.03 0.03 0.04 0.04 0.03 0.02 0.02 0.02 0.02 0.02 0.03 0.03 0.04 0.04 0.04 0.03 0.03 0.04 0.05 0.05
0.00 0.00 0.00 0.00 0.00 0.00 0.00 0.00 0.01 0.01 0.01 0.01 0.01 0.01 0.01 0.01 0.01 0.01 0.01 0.01 0.01 0.01 0.01 0.01 0.01 0.03 0.02 0.02 0.02 0.02 0.02 0.03 0.03 0.04 0.04 0.02 0.01 0.02 0.03 0.03 0.03 0.04 0.04 0.04 0.04 0.03 0.03 0.04 0.05
0.00 0.00 0.00 0.00 0.00 0.00 0.00 0.00 0.00 0.00 0.01 0.01 0.02 0.01 0.02 0.02 0.01 0.01 0.01 0.01 0.02 0.01 0.01 0.01 0.01 0.05 0.03 0.03 0.03 0.03 0.03 0.03 0.03 0.03 0.02 0.02 0.01 0.02 0.02 0.02 0.02 0.02 0.03 0.05 0.05 0.04 0.03 0.04 0.04
0.00 0.00 0.00 0.00 0.00 0.00 0.00 0.00 0.00 0.01 0.01 0.01 0.01 0.01 0.01 0.02 0.01 0.01 0.01 0.01 0.01 0.01 0.01 0.01 0.01 0.04 0.03 0.02 0.03 0.05 0.05 0.05 0.04 0.03 0.03 0.03 0.02 0.02 0.02 0.02 0.02 0.03 0.03 0.05 0.05 0.04 0.04 0.03 0.04
0.00 0.00 0.00 0.00 0.00 0.00 0.00 0.00 0.00 0.00 0.00 0.00 0.01 0.01 0.01 0.01 0.01 0.01 0.02 0.01 0.01 0.00 0.00 0.01 0.01 0.03 0.02 0.02 0.02 0.04 0.06 0.07 0.07 0.06 0.05 0.03 0.02 0.02 0.02 0.01 0.01 0.03 0.03 0.05 0.04 0.04 0.04 0.03 0.03
0.00 0.00 0.00 0.00 0.00 0.00 0.00 0.00 0.00 0.00 0.01 0.00 0.01 0.01 0.01 0.01 0.02 0.01 0.01 0.00 0.01 0.00 0.00 0.01 0.01 0.03 0.02 0.02 0.02 0.03 0.05 0.09 0.12 0.09 0.06 0.04 0.03 0.02 0.02 0.02 0.02 0.02 0.03 0.04 0.03 0.04 0.04 0.04 0.04
0.00 0.00 0.00 0.00 0.01 0.00 0.00 0.00 0.00 0.00 0.00 0.00 0.00 0.00 0.01 0.01 0.01 0.01 0.01 0.01 0.00 0.00 0.00 0.00 0.00 0.01 0.01 0.01 0.01 0.02 0.04 0.07 0.09 0.11 0.09 0.08 0.05 0.03 0.02 0.02 0.02 0.02 0.03 0.04 0.04 0.05 0.05 0.05 0.05
0.00 0.00 0.00 0.01 0.01 0.00 0.00 0.00 0.00 0.00 0.00 0.00 0.00 0.00 0.00 0.00 0.01 0.01 0.02 0.02 0.01 0.00 0.00 0.00 0.01 0.01 0.01 0.01 0.01 0.01 0.03 0.06 0.07 0.09 0.10 0.07 0.04 0.03 0.02 0.02 0.02 0.02 0.02 0.03 0.04 0.04 0.04 0.03 0.03
0.00 0.00 0.00 0.00 0.00 0.00 0.00 0.00 0.00 0.00 0.00 0.00 0.00 0.00 0.00 0.00 0.00 0.00 0.01 0.01 0.01 0.01 0.00 0.00 0.01 0.02 0.02 0.01 0.01 0.02 0.04 0.05 0.06 0.07 0.06 0.04 0.04 0.03 0.03 0.02 0.02 0.02 0.03 0.03 0.04 0.04 0.04 0.03 0.03
0.00 0.00 0.00 0.00 0.00 0.00 0.00 0.00 0.00 0.00 0.00 0.00 0.00 0.00 0.00 0.00 0.00 0.00 0.00 0.00 0.01 0.01 0.00 0.01 0.03 0.03 0.03 0.02 0.03 0.04 0.04 0.05 0.05 0.07 0.06 0.04 0.04 0.03 0.03 0.02 0.02 0.02 0.03 0.03 0.03 0.02 0.03 0.03 0.04
0.00 0.00 0.00 0.00 0.00 0.00 0.00 0.00 0.00 0.00 0.00 0.00 0.00 0.00 0.00 0.00 0.00 0.00 0.00 0.00 0.00 0.00 0.01 0.01 0.02 0.02 0.03 0.04 0.05 0.05 0.06 0.05 0.05 0.05 0.05 0.04 0.04 0.03 0.02 0.03 0.03 0.03 0.03 0.03 0.03 0.02 0.02 0.02 0.03
0.00 0.00 0.00 0.01 0.00 0.00 0.00 0.00 0.00 0.00 0.00 0.00 0.00 0.00 0.00 0.00 0.00 0.00 0.00 0.00 0.00 0.01 0.02 0.03 0.04 0.03 0.04 0.05 0.05 0.05 0.05 0.05 0.05 0.05 0.05 0.04 0.05 0.05 0.03 0.02 0.03 0.03 0.04 0.04 0.04 0.03 0.03 0.03 0.02
MSLP
1007.44 1007.93 1008.49 1009.03 1009.45 1009.72 1009.82 1009.81 1009.76 1009.78 1009.92 1010.24 1010.71 1011.26 1011.82 1012.27 1012.56 1012.65 1012.56 1012.36 1012.14 1011.98 1011.96 1012.08 1012.34 1012.68 1013.01 1013.28 1013.45 1013.49 1013.44 1013.33 1013.22 1013.15 1013.15 1013.20 1013.29 1013.37 1013.43 1013.44 1013.41 1013.34 1013.28 1013.25 1013.26 1013.32 1013.42 1013.53 1013.61
1007.45 1008.05 1008.71 1009.31 1009.78 1010.06 1010.15 1010.10 1009.99 1009.94 1010.02 1010.26 1010.66 1011.15 1011.65 1012.05 1012.30 1012.37 1012.28 1012.10 1011.92 1011.83 1011.87 1012.07 1012.40 1012.80 1013.19 1013.49 1013.68 1013.74 1013.71 1013.61 1013.52 1013.46 1013.46 1013.51 1013.58 1013.65 1013.67 1013.65 1013.58 1013.49 1013.42 1013.39 1013.42 1013.49 1013.59 1013.68 1013.73
1007.50 1008.20 1008.95 1009.62 1010.13 1010.43 1010.50 1010.42 1010.27 1010.15 1010.16 1010.34 1010.66 1011.08 1011.52 1011.87 1012.09 1012.13 1012.04 1011.89 1011.75 1011.70 1011.81 1012.06 1012.45 1012.89 1013.31 1013.65 1013.86 1013.95 1013.93 1013.87 1013.80 1013.76 1013.77 1013.82 1013.88 1013.92 1013.91 1013.85 1013.76 1013.66 1013.59 1013.57 1013.60 1013.68 1013.78 1013.84 1013.85
1007.56 1008.34 1009.16 1009.89 1010.44 1010.74 1010.82 1010.72 1010.53 1010.38 1010.34 1010.45 1010.72 1011.08 1011.46 1011.78 1011.96 1012.00 1011.92 1011.79 1011.69 1011.69 1011.83 1012.13 1012.54 1013.00 1013.43 1013.77 1014.00 1014.10 1014.11 1014.08 1014.04 1014.03 1014.06 1014.11 1014.16 1014.18 1014.15 1014.07 1013.96 1013.86 1013.79 1013.79 1013.83 1013.92 1013.99 1014.02 1013.97
1007.62 1008.45 1009.31 1010.07 1010.63 1010.95 1011.03 1010.93 1010.73 1010.56 1010.50 1010.59 1010.82 1011.15 1011.50 1011.79 1011.97 1012.02 1011.97 1011.87 1011.81 1011.84 1012.01 1012.31 1012.72 1013.16 1013.57 1013.89 1014.11 1014.21 1014.24 1014.23 1014.23 1014.25 1014.30 1014.36 1014.41 1014.42 1014.37 1014.28 1014.17 1014.08 1014.02 1014.03 1014.09 1014.16 1014.21 1014.20 1014.09
1007.66 1008.50 1009.36 1010.12 1010.68 1011.00 1011.09 1011.00 1010.83 1010.67 1010.62 1010.72 1010.96 1011.29 1011.64 1011.94 1012.14 1012.21 1012.20 1012.14 1012.12 1012.17 1012.35 1012.64 1013.01 1013.40 1013.75 1014.03 1014.21 1014.30 1014.32 1014.33 1014.34 1014.39 1014.46 1014.54 1014.59 1014.60 1014.55 1014.46 1014.35 1014.27 1014.23 1014.25 1014.31 1014.37 1014.40 1014.33 1014.16
1007.69 1008.50 1009.32 1010.04 1010.58 1010.89 1010.99 1010.93 1010.81 1010.70 1010.70 1010.84 1011.12 1011.48 1011.86 1012.20 1012.43 1012.56 1012.59 1012.59 1012.60 1012.67 1012.84 1013.09 1013.40 1013.71 1013.99 1014.19 1014.30 1014.35 1014.35 1014.36 1014.39 1014.45 1014.54 1014.63 1014.69 1014.70 1014.66 1014.57 1014.47 1014.39 1014.36 1014.38 1014.44 1014.48 1014.47 1014.37 1014.15
1007.74 1008.49 1009.24 1009.89 1010.39 1010.68 1010.79 1010.77 1010.71 1010.68 1010.75 1010.96 1011.30 1011.71 1012.15 1012.53 1012.82 1013.00 1013.09 1013.13 1013.17 1013.26 1013.40 1013.61 1013.85 1014.07 1014.24 1014.35 1014.38 1014.37 1014.34 1014.33 1014.37 1014.44 1014.55 1014.65 1014.71 1014.72 1014.67 1014.58 1014.48 1014.40 1014.37 1014.39 1014.43 1014.45 1014.41 1014.27 1014.02
1007.84 1008.50 1009.16 1009.74 1010.18 1010.44 1010.56 1010.59 1010.59 1010.64 1010.80 1011.10 1011.50 1011.97 1012.46 1012.89 1013.22 1013.45 1013.59 1013.68 1013.75 1013.84 1013.96 1014.12 1014.28 1014.41 1014.48 1014.49 1014.45 1014.37 1014.30 1014.27 1014.30 1014.38 1014.49 1014.60 1014.67 1014.68 1014.62 1014.52 1014.41 1014.31 1014.26 1014.26 1014.27 1014.27 1014.21 1014.05 1013.78
1008.02 1008.60 1009.17 1009.66 1010.03 1010.26 1010.38 1010.45 1010.51 1010.64 1010.89 1011.25 1011.71 1012.23 1012.75 1013.21 1013.58 1013.84 1014.01 1014.13 1014.22 1014.31 1014.42 1014.53 1014.62 1014.67 1014.66 1014.59 1014.47 1014.34 1014.23 1014.19 1014.21 1014.29 1014.41 1014.52 1014.59 1014.59 1014.53 1014.41 1014.27 1014.15 1014.07 1014.03 1014.02 1013.99 1013.91 1013.74 1013.47
1008.29 1008.81 1009.29 1009.69 1009.99 1010.19 1010.31 1010.40 1010.52 1010.71 1011.01 1011.42 1011.92 1012.45 1012.98 1013.44 1013.81 1014.08 1014.27 1014.40 1014.50 1014.60 1014.69 1014.78 1014.83 1014.82 1014.75 1014.62 1014.46 1014.29 1014.16 1014.10 1014.12 1014.21 1014.33 1014.45 1014.52 1014.52 1014.44 1014.29 1014.13 1013.97 1013.85 1013.78 1013.73 1013.68 1013.59 1013.42 1013.17
1008.66 1009.12 1009.53 1009.86 1010.10 1010.26 1010.37 1010.47 1010.62 1010.84 1011.17 1011.59 1012.08 1012.60 1013.09 1013.52 1013.87 1014.13 1014.31 1014.44 1014.55 1014.66 1014.75 1014.83 1014.86 1014.83 1014.74 1014.58 1014.40 1014.22 1014.08 1014.02 1014.05 1014.15 1014.29 1014.41 1014.49 1014.48 1014.39 1014.23 1014.03 1013.83 1013.67 1013.56 1013.48 1013.42 1013.32 1013.17 1012.96
1009.08 1009.50 1009.85 1010.12 1010.31 1010.43 1010.53 1010.63 1010.78 1011.00 1011.32 1011.72 1012.16 1012.63 1013.06 1013.44 1013.74 1013.96 1014.13 1014.26 1014.37 1014.49 1014.59 1014.68 1014.72 1014.70 1014.62 1014.47 1014.29 1014.13 1014.01 1013.96 1014.01 1014.12 1014.27 1014.41 1014.50 1014.50 1014.40 1014.22 1014.01 1013.78 1013.59 1013.44 1013.34 1013.26 1013.18 1013.06 1012.88
1009.51 1009.90 1010.21 1010.42 1010.56 1010.66 1010.73 1010.81 1010.94 1011.14 1011.41 1011.75 1012.13 1012.51 1012.87 1013.17 1013.41 1013.60 1013.74 1013.87 1014.00 1014.13 1014.27 1014.39 1014.46 1014.47 1014.42 1014.31 1014.17 1014.03 1013.94 1013.92 1013.98 1014.11 1014.28 1014.43 1014.53 1014.54 1014.46 1014.29 1014.06 1013.82 1013.61 1013.44 1013.33 1013.25 1013.19 1013.10 1012.96
1009.90 1010.25 1010.51 1010.68 1010.79 1010.85 1010.90 1010.95 1011.05 1011.20 1011.41 1011.67 1011.97 1012.26 1012.53 1012.77 1012.96 1013.11 1013.25 1013.38 1013.52 1013.69 1013.86 1014.02 1014.14 1014.20 1014.20 1014.14 1014.04 1013.94 1013.88 1013.88 1013.96 1014.10 1014.27 1014.44 1014.55 1014.59 1014.53 1014.37 1014.16 1013.93 1013.72 1013.55 1013.44 1013.37 1013.33 1013.27 1013.17
1010.19 1010.49 1010.71 1010.84 1010.92 1010.96 1010.99 1011.02 1011.07 1011.17 1011.30 1011.48 1011.68 1011.90 1012.10 1012.28 1012.44 1012.58 1012.72 1012.87 1013.04 1013.24 1013.45 1013.65 1013.82 1013.94 1013.99 1013.99 1013.94 1013.87 1013.83 1013.84 1013.92 1014.05 1014.23 1014.39 1014.52 1014.58 1014.55 1014.44 1014.26 1014.06 1013.87 1013.72 1013.62 1013.57 1013.54 1013.52 1013.46
1010.37 1010.61 1010.78 1010.89 1010.96 1010.99 1011.00 1011.00 1011.01 1011.04 1011.11 1011.20 1011.32 1011.47 1011.63 1011.78 1011.93 1012.09 1012.25 1012.43 1012.64 1012.87 1013.11 1013.36 1013.57 1013.73 1013.84 1013.88 1013.87 1013.83 1013.80 1013.81 1013.87 1013.98 1014.13 1014.28 1014.42 1014.50 1014.51 1014.44 1014.32 1014.17 1014.02 1013.89 1013.81 1013.78 1013.78 1013.78 1013.75
1010.43 1010.61 1010.75 1010.85 1010.92 1010.96 1010.97 1010.95 1010.91 1010.88 1010.87 1010.88 1010.94 1011.04 1011.17 1011.32 1011.50 1011.69 1011.89 1012.11 1012.35 1012.61 1012.89 1013.15 1013.40 1013.60 1013.74 1013.82 1013.84 1013.83 1013.80 1013.78 1013.81 1013.87 1013.98 1014.11 1014.24 1014.33 1014.38 1014.37 1014.31 1014.22 1014.12 1014.04 1013.98 1013.97 1013.98 1014.00 1013.99
1010.40 1010.53 1010.66 1010.77 1010.87 1010.94 1010.95 1010.91 1010.83 1010.73 1010.64 1010.58 1010.58 1010.64 1010.76 1010.94 1011.16 1011.40 1011.65 1011.92 1012.19 1012.48 1012.76 1013.04 1013.30 1013.53 1013.70 1013.81 1013.86 1013.85 1013.82 1013.78 1013.75 1013.76 1013.81 1013.90 1014.00 1014.11 1014.19 1014.23 1014.24 1014.21 1014.17 1014.13 1014.10 1014.10 1014.11 1014.14 1014.14
1010.31 1010.43 1010.58 1010.74 1010.89 1011.00 1011.02 1010.96 1010.83 1010.65 1010.47 1010.33 1010.27 1010.30 1010.42 1010.63 1010.89 1011.19 1011.51 1011.81 1012.11 1012.41 1012.69 1012.97 1013.23 1013.47 1013.67 1013.81 1013.89 1013.90 1013.87 1013.80 1013.73 1013.68 1013.66 1013.69 1013.76 1013.86 1013.97 1014.06 1014.12 1014.16 1014.18 1014.17 1014.16 1014.17 1014.18 1014.19 1014.20
1010.21 1010.36 1010.57 1010.82 1011.04 1011.19 1011.23 1011.14 1010.94 1010.66 1010.38 1010.14 1010.01 1010.00 1010.12 1010.35 1010.67 1011.02 1011.38 1011.72 1012.04 1012.33 1012.60 1012.87 1013.13 1013.38 1013.61 1013.79 1013.90 1013.95 1013.93 1013.85 1013.74 1013.64 1013.56 1013.53 1013.56 1013.64 1013.75 1013.88 1013.99 1014.09 1014.15 1014.18 1014.18 1014.18 1014.17 1014.17 1014.17
1010.14 1010.36 1010.68 1011.04 1011.35 1011.55 1011.59 1011.45 1011.15 1010.76 1010.35 1010.00 1009.77 1009.71 1009.81 1010.06 1010.41 1010.81 1011.21 1011.57 1011.89 1012.17 1012.43 1012.68 1012.93 1013.20 1013.46 1013.69 1013.87 1013.96 1013.98 1013.91 1013.78 1013.64 1013.51 1013.42 1013.40 1013.46 1013.57 1013.72 1013.87 1014.00 1014.10 1014.15 1014.16 1014.14 1014.11 1014.08 1014.07
1010.11 1010.46 1010.91 1011.38 1011.78 1012.02 1012.04 1011.83 1011.42 1010.89 1010.33 1009.84 1009.51 1009.38 1009.45 1009.70 1010.08 1010.51 1010.93 1011.31 1011.63 1011.89 1012.12 1012.36 1012.62 1012.90 1013.20 1013.50 1013.74 1013.91 1013.98 1013.95 1013.83 1013.66 1013.49 1013.36 1013.30 1013.32 1013.41 1013.56 1013.74 1013.90 1014.01 1014.08 1014.08 1014.05 1013.99 1013.94 1013.92
1010.14 1010.63 1011.22 1011.80 1012.28 1012.53 1012.51 1012.21 1011.67 1010.98 1010.26 1009.63 1009.18 1008.97 1009.01 1009.25 1009.63 1010.09 1010.53 1010.91 1011.23 1011.48 1011.69 1011.91 1012.17 1012.48 1012.83 1013.20 1013.52 1013.77 1013.91 1013.93 1013.83 1013.67 1013.47 1013.30 1013.20 1013.18 1013.26 1013.40 1013.58 1013.75 1013.87 1013.94 1013.94 1013.89 1013.81 1013.75 1013.72
1010.21 1010.83 1011.54 1012.22 1012.73 1012.98 1012.90 1012.49 1011.81 1010.97 1010.10 1009.33 1008.78 1008.49 1008.49 1008.71 1009.11 1009.58 1010.03 1010.43 1010.74 1010.97 1011.18 1011.39 1011.65 1011.99 1012.38 1012.80 1013.20 1013.53 1013.75 1013.82 1013.76 1013.60 1013.40 1013.21 1013.07 1013.02 1013.07 1013.19 1013.36 1013.53 1013.65 1013.72 1013.71 1013.64 1013.56 1013.49 1013.47
1010.29 1011.02 1011.81 1012.53 1013.05 1013.26 1013.10 1012.59 1011.78 1010.81 1009.81 1008.94 1008.31 1007.96 1007.93 1008.15 1008.55 1009.03 1009.50 1009.91 1010.22 1010.45 1010.65 1010.85 1011.12 1011.46 1011.89 1012.36 1012.82 1013.21 1013.48 1013.61 1013.59 1013.45 1013.25 1013.04 1012.88 1012.80 1012.82 1012.92 1013.07 1013.23 1013.35 1013.41 1013.39 1013.32 1013.24 1013.17 1013.17
1010.35 1011.13 1011.95 1012.67 1013.15 1013.29 1013.05 1012.45 1011.55 1010.48 1009.41 1008.48 1007.80 1007.43 1007.39 1007.61 1008.03 1008.53 1009.02 1009.43 1009.75 1009.99 1010.17 1010.37 1010.63 1010.98 1011.42 1011.91 1012.40 1012.83 1013.14 1013.31 1013.32 1013.20 1013.01 1012.79 1012.62 1012.52 1012.52 1012.60 1012.74 1012.88 1012.99 1013.04 1013.03 1012.96 1012.88 1012.83 1012.86
1010.36 1011.13 1011.91 1012.57 1012.97 1013.04 1012.73 1012.06 1011.11 1010.01 1008.92 1007.98 1007.31 1006.96 1006.92 1007.17 1007.60 1008.12 1008.63 1009.06 1009.39 1009.63 1009.82 1010.01 1010.26 1010.60 1011.02 1011.51 1011.99 1012.43 1012.76 1012.94 1012.97 1012.88 1012.70 1012.50 1012.33 1012.23 1012.21 1012.28 1012.40 1012.54 1012.64 1012.69 1012.68 1012.62 1012.56 1012.52 1012.58
1010.29 1010.97 1011.65 1012.21 1012.52 1012.51 1012.14 1011.45 1010.50 1009.44 1008.39 1007.51 1006.88 1006.57 1006.58 1006.85 1007.30 1007.83 1008.35 1008.80 1009.14 1009.39 1009.59 1009.78 1010.02 1010.34 1010.73 1011.18 1011.64 1012.06 1012.37 1012.56 1012.60 1012.53 1012.38 1012.21 1012.06 1011.98 1011.97 1012.04 1012.16 1012.29 1012.39 1012.44 1012.44 1012.39 1012.34 1012.33 1012.40
1010.10 1010.66 1011.19 1011.61 1011.82 1011.74 1011.35 1010.67 1009.79 1008.81 1007.87 1007.08 1006.54 1006.29 1006.34 1006.63 1007.09 1007.62 1008.15 1008.60 1008.96 1009.23 1009.44 1009.64 1009.87 1010.17 1010.53 1010.94 1011.36 1011.74 1012.03 1012.21 1012.27 1012.22 1012.11 1011.99 1011.88 1011.84 1011.86 1011.95 1012.08 1012.22 1012.32 1012.38 1012.38 1012.34 1012.30 1012.30 1012.38
Thickness
5815 5818 5819 5813 5805 5802 5795 5802 5809 5807 5809 5815 5815 5810 5803 5796 5790 5781 5802 5810 5808 5806 5801 5796 5793 5792 5791 5791 5790 5790 5790 5789 5788 5787 5786 5785 5785 5784 5783 5782 5781 5780 5779 5778 5777 5776 5776 5775 5774
5822 5821 5817 5813 5804 5792 5793 5806 5806 5807 5813 5818 5815 5811 5805 5799 5803 5801 5805 5807 5808 5806 5802 5798 5792 5791 5791 5790 5790 5789 5789 5788 5787 5786 5785 5784 5783 5782 5782 5781 5780 5779 5778 5777 5777 5776 5775 5774 5773
5824 5823 5815 5813 5803 5795 5795 5808 5810 5815 5819 5817 5811 5812 5805 5798 5803 5804 5807 5809 5809 5806 5803 5797 5792 5791 5790 5789 5789 5788 5787 5786 5786 5785 5784 5783 5782 5781 5780 5780 5779 5778 5777 5777 5776 5775 5774 5773 5772
5825 5820 5818 5810 5801 5807 5810 5814 5818 5815 5817 5818 5814 5805 5805 5806 5808 5810 5810 5810 5808 5806 5803 5797 5792 5790 5789 5788 5787 5787 5786 5785 5784 5784 5783 5782 5781 5780 5779 5778 5777 5777 5776 5776 5775 5774 5773 5772 5771
5827 5819 5811 5806 5806 5814 5821 5823 5823 5816 5814 5815 5814 5802 5798 5807 5813 5812 5810 5810 5808 5806 5804 5798 5792 5790 5788 5787 5787 5786 5786 5785 5783 5782 5781 5781 5780 5779 5778 5777 5776 5776 5775 5774 5774 5773 5771 5770 5769
5822 5820 5806 5799 5806 5817 5825 5828 5826 5819 5815 5816 5813 5803 5798 5809 5811 5810 5811 5810 5809 5806 5804 5799 5792 5790 5788 5787 5786 5785 5784 5783 5782 5781 5780 5780 5779 5778 5777 5776 5775 5774 5774 5773 5772 5772 5771 5770 5769
5820 5817 5808 5808 5809 5814 5822 5832 5826 5821 5815 5816 5819 5806 5803 5808 5811 5812 5812 5810 5808 5806 5804 5801 5797 5792 5789 5787 5785 5784 5784 5782 5781 5780 5779 5779 5778 5778 5777 5776 5775 5774 5773 5772 5771 5770 5770 5769 5768
5830 5822 5816 5815 5812 5814 5829 5833 5831 5826 5819 5826 5825 5808 5802 5807 5813 5813 5811 5809 5806 5805 5804 5801 5800 5796 5794 5790 5786 5784 5783 5782 5781 5781 5780 5779 5779 5778 5777 5776 5774 5773 5772 5771 5771 5770 5769 5768 5768
5835 5822 5815 5818 5818 5821 5833 5829 5830 5835 5827 5824 5825 5821 5819 5817 5815 5811 5807 5805 5803 5802 5803 5803 5801 5798 5796 5794 5789 5786 5784 5782 5782 5781 5780 5780 5782 5781 5779 5777 5774 5773 5772 5772 5771 5770 5770 5769 5768
5831 5822 5823 5832 5835 5832 5833 5831 5830 5828 5821 5818 5819 5820 5821 5817 5813 5809 5805 5802 5801 5801 5802 5802 5801 5800 5797 5795 5792 5789 5788 5785 5784 5783 5782 5782 5781 5781 5780 5776 5775 5774 5773 5773 5772 5771 5771 5771 5772
5833 5826 5833 5839 5843 5840 5834 5833 5837 5828 5818 5820 5817 5816 5817 5815 5813 5810 5808 5807 5805 5804 5803 5803 5802 5800 5798 5796 5794 5792 5790 5787 5786 5783 5782 5781 5781 5781 5780 5779 5777 5776 5775 5775 5773 5773 5774 5774 5773
5833 5835 5839 5840 5845 5840 5837 5835 5832 5829 5827 5834 5830 5825 5819 5815 5813 5812 5810 5809 5808 5806 5804 5804 5802 5799 5797 5796 5795 5792 5791 5789 5787 5783 5782 5781 5781 5780 5780 5779 5779 5778 5777 5775 5775 5774 5774 5773 5773
5834 5835 5841 5845 5845 5843 5840 5835 5832 5830 5836 5837 5832 5825 5820 5817 5815 5815 5814 5811 5809 5806 5805 5804 5802 5798 5795 5793 5793 5793 5791 5791 5788 5784 5782 5781 5782 5781 5780 5779 5778 5779 5777 5776 5775 5774 5774 5773 5773
5838 5839 5841 5843 5844 5842 5835 5834 5832 5830 5837 5832 5827 5822 5821 5819 5817 5815 5812 5809 5808 5806 5805 5805 5801 5799 5796 5794 5793 5793 5792 5789 5789 5786 5783 5781 5781 5780 5779 5778 5778 5778 5777 5776 5775 5774 5773 5772 5772
5843 5835 5836 5839 5841 5840 5837 5824 5828 5835 5836 5828 5825 5823 5821 5820 5819 5815 5814 5811 5809 5807 5806 5804 5802 5800 5796 5795 5794 5794 5792 5791 5789 5786 5782 5781 5780 5779 5778 5779 5777 5776 5776 5774 5774 5773 5772 5771 5770
5839 5832 5824 5833 5838 5839 5830 5814 5830 5838 5832 5826 5826 5823 5820 5820 5820 5819 5817 5814 5812 5809 5806 5804 5804 5801 5797 5794 5793 5793 5791 5790 5788 5786 5783 5780 5778 5777 5777 5777 5776 5774 5774 5773 5772 5771 5770 5769 5768
5830 5821 5821 5827 5838 5837 5831 5821 5832 5838 5833 5826 5825 5824 5821 5819 5819 5819 5819 5816 5814 5810 5807 5804 5803 5800 5798 5795 5792 5791 5789 5788 5786 5785 5783 5780 5778 5777 5777 5775 5773 5773 5772 5771 5771 5769 5767 5766 5765
5818 5822 5821 5823 5834 5833 5827 5826 5832 5836 5833 5828 5826 5825 5822 5820 5820 5821 5819 5818 5815 5812 5808 5805 5803 5800 5798 5795 5792 5790 5788 5787 5785 5784 5780 5778 5778 5776 5776 5775 5772 5772 5770 5768 5767 5764 5763 5763 5763
5829 5823 5820 5826 5837 5830 5824 5825 5830 5834 5832 5828 5826 5825 5823 5822 5825 5823 5821 5819 5816 5812 5808 5805 5802 5800 5798 5795 5792 5789 5786 5786 5784 5783 5780 5778 5776 5775 5774 5774 5770 5769 5768 5765 5765 5763 5761 5760 5761
5826 5820 5820 5825 5834 5828 5824 5824 5832 5834 5831 5831 5828 5826 5826 5824 5823 5821 5820 5819 5817 5813 5810 5807 5804 5802 5799 5796 5793 5790 5788 5786 5784 5782 5778 5777 5775 5773 5774 5770 5770 5768 5765 5762 5761 5759 5759 5758 5758
5823 5822 5821 5819 5824 5829 5822 5818 5825 5833 5834 5832 5832 5831 5831 5827 5824 5822 5820 5819 5818 5815 5812 5810 5806 5803 5800 5797 5794 5790 5786 5784 5782 5779 5777 5775 5773 5771 5769 5768 5767 5765 5765 5761 5758 5757 5755 5753 5755
5816 5829 5826 5820 5814 5816 5818 5806 5819 5828 5826 5828 5829 5830 5830 5830 5827 5825 5822 5820 5820 5818 5816 5811 5806 5803 5799 5796 5793 5788 5783 5780 5779 5777 5775 5772 5770 5769 5767 5765 5763 5762 5762 5758 5757 5756 5754 5751 5750
5822 5830 5825 5821 5816 5813 5816 5809 5820 5827 5821 5825 5829 5830 5832 5831 5829 5826 5824 5823 5823 5821 5817 5812 5806 5802 5799 5796 5793 5787 5784 5781 5779 5776 5771 5769 5768 5766 5764 5762 5760 5757 5757 5754 5752 5751 5750 5749 5747
5827 5822 5818 5818 5817 5797 5810 5805 5809 5826 5824 5827 5831 5831 5831 5831 5830 5827 5826 5824 5821 5821 5817 5813 5806 5801 5798 5795 5792 5787 5783 5779 5775 5771 5768 5766 5765 5763 5761 5759 5756 5754 5752 5750 5748 5746 5745 5744 5742
5820 5808 5795 5790 5791 5796 5813 5805 5812 5828 5832 5831 5830 5830 5831 5831 5829 5825 5822 5820 5818 5817 5815 5812 5806 5800 5797 5794 5791 5787 5782 5778 5772 5769 5766 5764 5762 5760 5756 5755 5751 5750 5747 5745 5744 5741 5740 5738 5735
5815 5814 5792 5779 5784 5800 5805 5801 5818 5830 5833 5833 5833 5832 5830 5829 5828 5825 5823 5820 5817 5815 5813 5810 5805 5800 5796 5792 5788 5785 5781 5778 5773 5768 5765 5762 5760 5757 5754 5750 5747 5745 5743 5742 5739 5739 5737 5734 5731
5808 5810 5822 5807 5800 5793 5801 5810 5819 5827 5824 5826 5827 5826 5825 5825 5824 5823 5822 5819 5815 5813 5810 5808 5803 5798 5794 5791 5786 5781 5778 5774 5770 5766 5763 5760 5757 5755 5751 5747 5744 5741 5739 5736 5735 5733 5730 5729 5728
5818 5818 5809 5798 5776 5774 5790 5798 5806 5810 5814 5819 5821 5821 5821 5822 5821 5820 5819 5817 5814 5812 5809 5806 5801 5796 5792 5788 5784 5781 5775 5770 5766 5762 5757 5754 5752 5749 5747 5744 5740 5737 5734 5732 5729 5728 5726 5723 5721
5802 5801 5801 5800 5797 5779 5775 5795 5821 5815 5817 5816 5818 5819 5819 5818 5818 5817 5816 5814 5812 5809 5806 5801 5797 5792 5788 5784 5780 5776 5771 5767 5762 5758 5754 5751 5748 5745 5742 5739 5736 5733 5730 5728 5724 5723 5721 5718 5716
5810 5806 5800 5785 5783 5789 5785 5795 5824 5821 5821 5818 5816 5815 5814 5814 5815 5814 5812 5809 5806 5803 5800 5796 5793 5789 5785 5781 5776 5771 5767 5763 5759 5755 5751 5747 5743 5741 5739 5735 5731 5728 5726 5723 5720 5717 5715 5713 5711